Observer details:
F51 Pan-STARRS 1, Haleakala.  Observers J. Bulger, K. Chambers, T. Lowe, P.
    Minguez, A. Schultz, I. Smith.  Measurers S. Chastel, J. Fairlamb, M.
    Huber, Y. Ramanjooloo, R. Wainscoat, R. Weryk, K. Chambers, T. de Boer, J.
    Bulger, H. Gao, C.-C. Lin, T. Lowe, E. Magnier, P. Minguez, A. Schultz, I.
    Smith.  1.8-m Ritchey-Chretien + CCD.
F52 Pan-STARRS 2, Haleakala.  Observers J. Bulger, K. Chambers, T. Dukes, T.
    Lowe, P. Minguez, A. Schultz, I. Smith.  Measurers S. Chastel, J.
    Fairlamb, M. Huber, Y. Ramanjooloo, R. Wainscoat, R. Weryk.  1.8-m
    Ritchey-Chretien + CCD.
T12 University of Hawaii 88-inch telescope, Maunakea.  Observer J. Fairlamb.
    Measurers Y. Ramanjooloo, R. Wainscoat.  2.24-m University of Hawaii
    reflector + CCD.

Orbital elements:
2023 SO7                                                                        
Epoch 2023 Sept. 13.0 TT = JDT 2460200.5                Bell                    
M 356.45304              (2000.0)            P               Q                  
n   0.00170021     Peri.  185.64136     +0.98209367     -0.11474547             
a  69.5239574      Node   171.34665     -0.10899883     +0.30080632             
e   0.7187333      Incl.   96.73635     -0.15365962     -0.94675711             
P 580              H    7.86          G   0.15           U   2                  
Residuals in seconds of arc
181005 F52  0.1-  0.0     220930 F52  0.1-  0.1+    230907 F52  0.0   0.0
181005 F52  0.0   0.2+    220930 F52  0.1+  0.1+    230907 F52  0.1-  0.0
181005 F52  0.0   0.2+    220930 F52  0.6-  0.0     230913 F51  0.3+  0.1+
181005 F52  0.1-  0.0     221001 F51  0.1-  0.0     230913 F51  0.1+  0.0
181110 F52  0.1+  0.1-    221001 F51  0.1-  0.0     230918 F51  0.0   0.1+
181110 F52  0.0   0.1-    221001 F51  0.1-  0.0     230918 F51  0.1-  0.0
181110 F52  0.0   0.0     221001 F51  0.1-  0.0     230918 F51  0.1-  0.0
181110 F52  0.1+  0.0     221124 F52  0.0   0.0     230918 F51  0.1-  0.1+
191102 F51  0.0   0.0     221124 F52  0.0   0.0     230918 F52  0.5+  0.0
191102 F51  0.0   0.1-    221124 F52  0.1+  0.0     230918 F52  0.2-  0.0
191102 F51  0.1+  0.1-    221124 F52  0.0   0.0     230921 F52  0.1+  0.2-
191102 F51  0.0   0.0     230820 F52  0.1-  0.0     230923 F51  0.0   0.1-
191130 F52  0.0   0.2+    230820 F52  0.0   0.0     230923 F51  0.0   0.1+
191130 F52  0.1+  0.0     230820 F52  0.1-  0.0     230924 T12  0.1-  0.0
191130 F52  0.0   0.1-    230820 F52  0.0   0.0     230924 T12  0.0   0.0
191130 F52  0.0   0.2-    230826 F52  0.1+  0.1+    230924 T12  0.0   0.0
200721 F52  0.0   0.1-    230826 F52  0.0   0.2+    230924 T12  0.0   0.0
200721 F52  0.0   0.1-    230827 F51  0.1+  0.0     230925 F51  0.2-  0.2-
200721 F52  0.0   0.1-    230827 F51  0.2+  0.0     230925 F51  0.1+  0.0
200922 F51  0.0   0.0     230827 F51  0.0   0.1+    230925 F51  0.0   0.1-
200922 F51  0.0   0.0     230827 F51  0.1-  0.1-    230925 F51  0.2-  0.1-
200922 F51  0.0   0.0     230829 F52  0.1-  0.0     230926 F51  0.1-  0.0
200922 F51  0.0   0.0     230829 F52  0.1-  0.1+    230926 F51  0.1-  0.0
210912 F52  0.1-  0.1+    230829 F52  0.0   0.0     230926 F52  0.1-  0.0
210912 F52  0.0   0.1-    230829 F52  0.0   0.0     230926 F52  0.0   0.0
210912 F52  0.0   0.0     230904 F52  0.1+  0.2-    230926 F51  0.1-  0.0
211002 F51  0.1-  0.0     230904 F52  0.1+  0.1-    230926 F52  0.1-  0.1+
211002 F51  0.1-  0.1-    230904 F51  0.0   0.0     230926 F51  0.1-  0.0
211002 F51  0.0   0.0     230904 F51  0.1-  0.0     230926 F52  0.0   0.0
211013 F51  0.1-  0.1-    230904 F51  0.0   0.1-    230927 F51  0.2+  0.0
211013 F51  0.0   0.0     230904 F51  0.0   0.0     230927 F52  0.2+  0.1-
211013 F51  0.1-  0.1+    230907 F52  0.1-  0.0     230927 F52  0.4+  0.1-
211013 F51  0.0   0.1+    230907 F52  0.1-  0.0     230927 F51  0.1-  0.0
220903 F51  0.1-  0.0     230907 F52  0.0   0.0     230927 F52  0.0   0.0
220903 F51  0.0   0.0     230907 F52  0.0   0.0     230927 F51  0.1+  0.1-
220903 F51  0.0   0.1+    230907 F52  0.1-  0.0     230927 F52  0.0   0.1+
220903 F51  0.0   0.0     230907 F52  0.1-  0.0     230927 F51  0.0   0.0

Ephemeris:
2023 SO7                 a,e,i = 69.52, 0.72, 97                 q = 19.5548
Date    TT    R. A. (2000) Decl.     Delta      r    Elong.  Phase     V
2023 08 28    23 01 16.7 +21 31 56  19.8750 20.7313   147.2     1.5    21.1
...
2023 09 12    22 58 37.7 +21 05 35  19.8059 20.7153   154.0     1.2    21.1
...
2023 09 20    22 57 13.9 +20 49 20  19.7944 20.7067   154.7     1.2    21.1
...
2023 09 26    22 56 13.1 +20 36 19  19.7977 20.7004   153.6     1.2    21.1
2023 09 27    22 56 03.2 +20 34 05  19.7992 20.6993   153.2     1.2    21.1
2023 09 28    22 55 53.4 +20 31 50  19.8010 20.6982   152.9     1.3    21.1
...
2023 10 04    22 54 56.4 +20 18 03  19.8175 20.6919   150.2     1.4    21.1
...
2023 10 12    22 53 46.1 +19 59 01  19.8548 20.6835   145.3     1.6    21.1
...
2023 10 27    22 51 57.6 +19 22 14  19.9686 20.6677   133.7     2.0    21.2

M. P. C. Staff               (C) Copyright 2023 MPC           M.P.E.C. 2023-S247





More information about the Iaude mailing list